Weather History for KBTR - April, 2014

Change the Weather History Date:

Wednesday, April 16, 2014

  Actual Average Record
Temperature  
Mean Temperature 52 °F 68 °F  
Max Temperature 67 °F 79 °F 90 °F (1920)
Min Temperature 37 °F 57 °F 37 °F (2014)
Degree Days  
Heating Degree Days 13 2  
Month to date heating degree days 43 40  
Since 1 July heating degree days 1970 1542  
Cooling Degree Days 0 5  
Month to date cooling degree days 58 60  
Year to date cooling degree days 104 149  
Moisture  
Dew Point 36 °F    
Average Humidity 60    
Maximum Humidity 85    
Minimum Humidity 34    
Precipitation  
Precipitation 0.00 in 0.16 in 4.32 in (1973)
Month to date precipitation 3.50 2.47  
Year to date precipitation 15.99 17.64  
Snow  
Snow 0.00 in - - ()
Month to date snowfall 0.0  
Since 1 July snowfall 0.4  
Snow Depth 0.00 in    
Sea Level Pressure  
Sea Level Pressure 30.18 in    
Wind  
Wind Speed 6 mph (East)    
Max Wind Speed 15 mph    
Max Gust Speed 18 mph    
Visibility 10 miles    
Events      
T = Trace of Precipitation, MM = Missing Value Source: NWS Daily Summary

Daily Weather History Graph

Daily Weather History Graph

Search for Another Location

Airport or City:

Trip Planner

Search our weather history database for the weather conditions in past years. The results will help you decide how hot, cold, wet, or windy it might be!

Date:

Astronomy

Apr. 16, 2014 Rise Set
Actual Time 6:36 AM CDT 7:33 PM CDT
Civil Twilight 6:11 AM CDT 7:57 PM CDT
Nautical Twilight 5:42 AM CDT 8:27 PM CDT
Astronomical Twilight 5:12 AM CDT 8:57 PM CDT
Moon 9:10 PM CDT (4/16) 7:27 AM CDT (4/16)
Length of Visible Light 13h 46m
Length of Day
12h 56m
Full, 98% of the Moon is Illuminated
Apr 16
Full
Apr 22
Last Quarter
Apr 29
New
May 6
First Quarter
May 14
Full

Hourly Weather History & Observations

Time (CDT) Temp. Windchill Dew Point Humidity Pressure Visibility Wind Dir Wind Speed Gust Speed Precip Events Conditions
12:53 AM 44.1 °F 39.5 °F 33.1 °F 65% 30.19 in 10.0 mi NNE 8.1 mph - N/A   Clear
1:53 AM 43.0 °F 38.8 °F 32.0 °F 65% 30.19 in 10.0 mi NE 6.9 mph - N/A   Clear
2:53 AM 42.1 °F 38.4 °F 32.0 °F 67% 30.18 in 10.0 mi NNE 5.8 mph - N/A   Clear
3:53 AM 39.9 °F 37.8 °F 33.1 °F 77% 30.19 in 10.0 mi NNE 3.5 mph - N/A   Clear
4:53 AM 39.0 °F 34.8 °F 32.0 °F 76% 30.19 in 10.0 mi NE 5.8 mph - N/A   Clear
5:53 AM 37.9 °F 34.4 °F 32.0 °F 79% 30.20 in 10.0 mi NE 4.6 mph - N/A   Clear
6:53 AM 37.0 °F - 33.1 °F 86% 30.23 in 10.0 mi Calm Calm - N/A   Clear
7:53 AM 42.1 °F 38.4 °F 33.1 °F 70% 30.26 in 10.0 mi NE 5.8 mph - N/A   Clear
8:53 AM 46.4 °F 41.1 °F 33.8 °F 62% 30.26 in 10.0 mi East 11.5 mph - N/A   Clear
9:53 AM 52.0 °F - 30.9 °F 45% 30.27 in 10.0 mi ESE 12.7 mph - N/A   Clear
10:53 AM 55.9 °F - 30.9 °F 39% 30.26 in 10.0 mi ESE 8.1 mph 17.3 mph N/A   Clear
11:53 AM 57.9 °F - 34.0 °F 41% 30.24 in 10.0 mi Variable 4.6 mph - N/A   Clear
12:53 PM 62.1 °F - 37.0 °F 39% 30.22 in 10.0 mi SE 5.8 mph - N/A   Clear
1:53 PM 63.0 °F - 35.1 °F 35% 30.18 in 10.0 mi Variable 3.5 mph - 0.00 in   Clear
2:53 PM 64.9 °F - 35.1 °F 33% 30.14 in 10.0 mi Variable 3.5 mph - N/A   Clear
3:53 PM 64.9 °F - 36.0 °F 34% 30.12 in 10.0 mi Calm Calm - N/A   Clear
4:53 PM 64.9 °F - 37.0 °F 36% 30.11 in 10.0 mi East 4.6 mph - N/A   Clear
5:53 PM 64.9 °F - 36.0 °F 34% 30.10 in 10.0 mi Variable 3.5 mph - N/A   Clear
6:53 PM 61.0 °F - 42.1 °F 50% 30.09 in 10.0 mi East 5.8 mph - N/A   Clear
7:53 PM 59.0 °F - 41.0 °F 51% 30.10 in 10.0 mi ESE 10.4 mph - N/A   Clear
8:53 PM 54.0 °F - 42.1 °F 64% 30.12 in 10.0 mi ESE 6.9 mph - N/A   Clear
9:53 PM 51.1 °F - 43.0 °F 74% 30.13 in 10.0 mi ESE 5.8 mph - N/A   Clear
10:53 PM 50.0 °F - 42.1 °F 74% 30.14 in 10.0 mi East 6.9 mph - N/A   Clear
11:53 PM 51.1 °F - 42.1 °F 71% 30.16 in 10.0 mi ESE 6.9 mph - N/A   Clear